Location: Prague
(50.0830°N, 14.4670°E)
Time: 18:07:50
(UTC+02:00)

Envisat - Pass Details

Date: 28 September 2021
Orbit: 764 x 766 km, 98.2° (Epoch: 18 October)

Event Time Altitude Azimuth Distance (km) Brightness Sun altitude
Rises 05:43:46 0° 19° (NNE) 3,243 6.7 -12.6°
Reaches altitude 10° 05:46:13 10° 27° (NNE) 2,312 6.0 -12.2°
Maximum altitude 05:51:02 41° 97° (E) 1,099 4.4 -11.5°
Drops below altitude 10° 05:55:48 10° 168° (SSE) 2,295 5.5 -10.7°
Sets 05:58:13 0° 175° (S) 3,216 6.2 -10.3°
